Hourly Weather Maan

Today, 31 October, Saturday

Time Temperature Precipitation Wind Pressure Humidity
00:00 +13°C° 0 mm 1 mps 636 mmHg 46%
01:00 +13°C° 0 mm 1 mps 635 mmHg 48%
02:00 +12°C° 0 mm 1 mps 635 mmHg 55%
03:00 +11°C° 0 mm 1 mps 635 mmHg 54%
04:00 +11°C° 0 mm 1 mps 634 mmHg 54%
05:00 +11°C° 0 mm 1 mps 634 mmHg 54%
06:00 +14°C° 0 mm 1 mps 636 mmHg 46%
07:00 +18°C° 0 mm 1 mps 637 mmHg 38%
08:00 +21°C° 0 mm 1 mps 638 mmHg 30%
09:00 +21°C° 0 mm 2 mps 638 mmHg 27%
10:00 +23°C° 0 mm 2 mps 638 mmHg 25%
11:00 +24°C° 0 mm 3 mps 638 mmHg 22%
12:00 +25°C° 0 mm 3 mps 638 mmHg 23%
13:00 +25°C° 0 mm 3 mps 637 mmHg 23%
14:00 +25°C° 0 mm 4 mps 637 mmHg 27%
15:00 +22°C° 0 mm 3 mps 636 mmHg 33%
16:00 +20°C° 0 mm 3 mps 636 mmHg 39%
17:00 +18°C° 0 mm 3 mps 635 mmHg 45%
18:00 +16°C° 0 mm 3 mps 635 mmHg 54%
19:00 +15°C° 0 mm 2 mps 635 mmHg 63%
20:00 +14°C° 0 mm 2 mps 635 mmHg 72%
21:00 +13°C° 0 mm 1 mps 635 mmHg 75%
22:00 +12°C° 0 mm 1 mps 635 mmHg 78%
23:00 +11°C° 0 mm 0 mps 635 mmHg 80%

Tomorrow, 1 November, Sunday

Time Temperature Precipitation Wind Pressure Humidity
00:00 +10°C° 0 mm 0 mps 634 mmHg 81%
01:00 +10°C° 0 mm 0 mps 634 mmHg 81%
02:00 +9°C° 0 mm 0 mps 634 mmHg 81%
03:00 +9°C° 0 mm 0 mps 634 mmHg 81%
04:00 +9°C° 0 mm 0 mps 634 mmHg 81%
05:00 +9°C° 0 mm 0 mps 634 mmHg 80%
06:00 +13°C° 0 mm 1 mps 635 mmHg 70%
07:00 +15°C° 0 mm 1 mps 636 mmHg 59%
08:00 +19°C° 0 mm 1 mps 638 mmHg 48%
09:00 +19°C° 0 mm 2 mps 638 mmHg 44%
10:00 +21°C° 0 mm 3 mps 638 mmHg 39%
11:00 +22°C° 0 mm 3 mps 639 mmHg 35%
12:00 +22°C° 0 mm 3 mps 638 mmHg 36%
13:00 +22°C° 0 mm 3 mps 638 mmHg 38%
14:00 +22°C° 0 mm 4 mps 638 mmHg 39%
15:00 +20°C° 0.3 mm 3 mps 637 mmHg 47%
16:00 +18°C° 0.3 mm 2 mps 636 mmHg 54%
17:00 +16°C° 0.3 mm 2 mps 636 mmHg 61%
18:00 +15°C° 0.2 mm 2 mps 636 mmHg 66%
19:00 +14°C° 0.2 mm 2 mps 636 mmHg 71%
20:00 +13°C° 0.2 mm 1 mps 636 mmHg 76%
21:00 +13°C° 0.1 mm 1 mps 636 mmHg 77%
22:00 +12°C° 0.1 mm 1 mps 636 mmHg 79%
23:00 +11°C° 0.1 mm 1 mps 636 mmHg 81%

Day after tomorrow, 2 November, Monday

Time Temperature Precipitation Wind Pressure Humidity
00:00 +11°C° 0 mm 1 mps 635 mmHg 82%
01:00 +11°C° 0 mm 1 mps 635 mmHg 83%
02:00 +10°C° 0 mm 1 mps 635 mmHg 84%
03:00 +10°C° 0 mm 1 mps 635 mmHg 85%
04:00 +10°C° 0 mm 1 mps 635 mmHg 86%
05:00 +10°C° 0 mm 1 mps 635 mmHg 87%
06:00 +11°C° 0 mm 1 mps 636 mmHg 81%
07:00 +13°C° 0 mm 1 mps 637 mmHg 76%
08:00 +15°C° 0 mm 1 mps 638 mmHg 71%
09:00 +16°C° 0 mm 1 mps 638 mmHg 64%
10:00 +17°C° 0 mm 2 mps 639 mmHg 58%
11:00 +19°C° 0 mm 3 mps 639 mmHg 51%
12:00 +19°C° 0 mm 3 mps 639 mmHg 50%
13:00 +19°C° 0 mm 4 mps 638 mmHg 50%
14:00 +19°C° 0 mm 4 mps 638 mmHg 49%
15:00 +18°C° 0 mm 4 mps 638 mmHg 57%
16:00 +15°C° 0 mm 4 mps 637 mmHg 65%
17:00 +14°C° 0 mm 4 mps 637 mmHg 73%
18:00 +13°C° 0 mm 3 mps 637 mmHg 77%
19:00 +12°C° 0 mm 3 mps 637 mmHg 81%
20:00 +12°C° 0 mm 2 mps 637 mmHg 85%
21:00 +12°C° 0 mm 2 mps 637 mmHg 86%
22:00 +11°C° 0 mm 1 mps 637 mmHg 87%
23:00 +10°C° 0 mm 1 mps 636 mmHg 88%

3 November, Tuesday

Time Temperature Precipitation Wind Pressure Humidity
00:00 +10°C° 0 mm 1 mps 636 mmHg 89%
01:00 +9°C° 0 mm 1 mps 636 mmHg 90%
02:00 +9°C° 0 mm 1 mps 636 mmHg 90%
03:00 +9°C° 0 mm 1 mps 636 mmHg 91%
04:00 +9°C° 0 mm 1 mps 636 mmHg 91%
05:00 +7°C° 0 mm 0 mps 636 mmHg 92%
06:00 +9°C° 0 mm 0 mps 636 mmHg 84%
07:00 +12°C° 0 mm 1 mps 637 mmHg 76%
08:00 +14°C° 0 mm 1 mps 638 mmHg 69%
09:00 +15°C° 0 mm 1 mps 638 mmHg 62%
10:00 +16°C° 0 mm 1 mps 639 mmHg 56%
11:00 +18°C° 0 mm 2 mps 639 mmHg 50%
12:00 +18°C° 0 mm 2 mps 638 mmHg 49%
13:00 +18°C° 0 mm 3 mps 638 mmHg 48%
14:00 +19°C° 0 mm 4 mps 638 mmHg 48%
15:00 +17°C° 0 mm 3 mps 637 mmHg 53%
16:00 +16°C° 0 mm 3 mps 637 mmHg 59%
17:00 +13°C° 0 mm 3 mps 636 mmHg 65%
18:00 +12°C° 0 mm 3 mps 636 mmHg 69%
19:00 +11°C° 0 mm 3 mps 636 mmHg 73%
20:00 +11°C° 0 mm 3 mps 636 mmHg 77%
21:00 +10°C° 0 mm 2 mps 636 mmHg 81%
22:00 +9°C° 0 mm 2 mps 636 mmHg 84%
23:00 +10°C° 0 mm 1 mps 636 mmHg 88%

4 November, Wednesday

Time Temperature Precipitation Wind Pressure Humidity
00:00 +9°C° 0 mm 1 mps 635 mmHg 88%
01:00 +9°C° 0 mm 1 mps 635 mmHg 88%
02:00 +9°C° 0 mm 1 mps 635 mmHg 88%
03:00 +8°C° 0 mm 1 mps 635 mmHg 89%
04:00 +8°C° 0 mm 1 mps 635 mmHg 90%
05:00 +8°C° 0 mm 1 mps 635 mmHg 91%
06:00 +9°C° 0 mm 1 mps 635 mmHg 84%
07:00 +11°C° 0 mm 1 mps 636 mmHg 77%
08:00 +12°C° 0 mm 0 mps 637 mmHg 70%
09:00 +14°C° 0 mm 1 mps 637 mmHg 63%
10:00 +15°C° 0 mm 2 mps 637 mmHg 57%
11:00 +17°C° 0 mm 3 mps 638 mmHg 51%
12:00 +17°C° 0 mm 3 mps 637 mmHg 50%
13:00 +17°C° 0 mm 4 mps 637 mmHg 49%
14:00 +17°C° 0 mm 4 mps 636 mmHg 48%
15:00 +15°C° 0 mm 4 mps 636 mmHg 53%
16:00 +13°C° 0 mm 4 mps 635 mmHg 59%
17:00 +12°C° 0 mm 4 mps 635 mmHg 64%
18:00 +11°C° 0 mm 3 mps 635 mmHg 67%
19:00 +10°C° 0 mm 3 mps 635 mmHg 71%
20:00 +10°C° 0 mm 2 mps 635 mmHg 74%
21:00 +9°C° 0 mm 2 mps 635 mmHg 73%
22:00 +10°C° 0 mm 1 mps 634 mmHg 73%
23:00 +9°C° 0 mm 1 mps 634 mmHg 73%

5 November, Thursday

Time Temperature Precipitation Wind Pressure Humidity
00:00 +9°C° 0 mm 1 mps 634 mmHg 76%
01:00 +8°C° 0 mm 1 mps 634 mmHg 80%
02:00 +8°C° 0 mm 1 mps 633 mmHg 84%
03:00 +7°C° 0 mm 1 mps 633 mmHg 85%
04:00 +7°C° 0 mm 1 mps 633 mmHg 87%
05:00 +7°C° 0 mm 1 mps 633 mmHg 89%
06:00 +8°C° 0 mm 1 mps 634 mmHg 82%
07:00 +9°C° 0 mm 2 mps 634 mmHg 75%
08:00 +10°C° 0 mm 2 mps 635 mmHg 69%
09:00 +12°C° 0 mm 2 mps 635 mmHg 60%
10:00 +14°C° 0 mm 2 mps 635 mmHg 52%
11:00 +14°C° 0 mm 3 mps 636 mmHg 43%
12:00 +14°C° 0 mm 4 mps 635 mmHg 42%
13:00 +15°C° 0 mm 4 mps 635 mmHg 41%
14:00 +15°C° 0 mm 5 mps 635 mmHg 40%
15:00 +14°C° 0 mm 5 mps 634 mmHg 44%
16:00 +13°C° 0 mm 5 mps 634 mmHg 49%
17:00 +10°C° 0 mm 5 mps 634 mmHg 54%
18:00 +11°C° 0 mm 4 mps 634 mmHg 61%
19:00 +10°C° 0 mm 4 mps 634 mmHg 69%
20:00 +9°C° 0 mm 3 mps 634 mmHg 76%
21:00 +9°C° 0 mm 3 mps 633 mmHg 78%
22:00 +8°C° 0 mm 3 mps 633 mmHg 81%
23:00 +8°C° 0 mm 2 mps 633 mmHg 83%
Show more

We Need Your Consent

Meteoprog and our Service Providers may store and access personal data such as cookies, device identifiers or other similar technologies on your device and process such data to personalise content and ads, as well as provide social media features and to analyse the traffic.

  • Store and/or access information on your device

    Cookies, device identifiers or other information can be stored or accessed on your device for the purposes indicated above.

  • Personalised ads and content, ad and content measurement, audience insights, and products development

    Ads and content can be personalised based on a profile. More data can be added to better personalise ads and content. Ad and content performance can be measured. Insights about the audience who saw the ads and content can be derived. Such data can be used to develop or improve user’s experience, systems and software.

By clicking ‘I Agree’ you will allow the use of indicated cookies, device identifiers, web beacons or other similar technologies. Your settings can be changed in the browser on your device.

For certain purposes, legitimate interests may be relied on, rather than consent. You can read more about this in our Privacy and Cookie Policy.